• In Hungary
  • List of Countries
  • For 7 days
  • Water Temperature
  • Satellite Maps
  • Weather Map
  • News
  • Weather Widgets
  • user-avatar
    Login

    Hourly Weather Staroe Tataurovo

    Today, 25 June, Monday

    Time Temperature Precipitation Wind Pressure Humidity
    00:00 +15°C° 0.3 mm 2 mps 709 mmHg 96%
    01:00 +14°C° 0 mm 2 mps 709 mmHg 96%
    02:00 +14°C° 0.1 mm 2 mps 709 mmHg 96%
    03:00 +14°C° 0.1 mm 2 mps 709 mmHg 96%
    04:00 +14°C° 0.1 mm 2 mps 709 mmHg 96%
    05:00 +15°C° 0.1 mm 2 mps 709 mmHg 90%
    06:00 +16°C° 0.1 mm 3 mps 709 mmHg 85%
    07:00 +17°C° 0 mm 3 mps 709 mmHg 80%
    08:00 +18°C° 0.3 mm 3 mps 709 mmHg 76%
    09:00 +19°C° 0.3 mm 4 mps 709 mmHg 72%
    10:00 +20°C° 0.3 mm 4 mps 709 mmHg 69%
    11:00 +21°C° 0.3 mm 4 mps 709 mmHg 66%
    12:00 +22°C° 0.3 mm 5 mps 709 mmHg 62%
    13:00 +22°C° 0 mm 5 mps 710 mmHg 63%
    14:00 +22°C° 0.7 mm 4 mps 710 mmHg 67%
    15:00 +21°C° 0.7 mm 4 mps 710 mmHg 72%
    16:00 +21°C° 0.7 mm 4 mps 710 mmHg 77%
    17:00 +20°C° 0.4 mm 3 mps 710 mmHg 80%
    18:00 +19°C° 0.4 mm 3 mps 710 mmHg 84%
    19:00 +18°C° 0.4 mm 2 mps 710 mmHg 87%
    20:00 +17°C° 0.1 mm 2 mps 711 mmHg 90%
    21:00 +16°C° 0.1 mm 1 mps 711 mmHg 93%
    22:00 +15°C° 0.1 mm 1 mps 711 mmHg 96%
    23:00 +15°C° 0 mm 1 mps 711 mmHg 96%

    Tomorrow, 26 June, Tuesday

    Time Temperature Precipitation Wind Pressure Humidity
    00:00 +15°C° 0 mm 1 mps 711 mmHg 96%
    01:00 +14°C° 0 mm 1 mps 712 mmHg 97%
    02:00 +14°C° 0 mm 1 mps 712 mmHg 96%
    03:00 +14°C° 0 mm 1 mps 712 mmHg 96%
    04:00 +14°C° 0 mm 1 mps 712 mmHg 96%
    05:00 +15°C° 0 mm 1 mps 712 mmHg 91%
    06:00 +18°C° 0 mm 1 mps 713 mmHg 86%
    07:00 +19°C° 0 mm 1 mps 713 mmHg 81%
    08:00 +20°C° 0 mm 2 mps 713 mmHg 72%
    09:00 +23°C° 0 mm 2 mps 714 mmHg 62%
    10:00 +24°C° 0 mm 3 mps 714 mmHg 53%
    11:00 +25°C° 0 mm 3 mps 714 mmHg 50%
    12:00 +26°C° 0 mm 3 mps 714 mmHg 47%
    13:00 +27°C° 0 mm 4 mps 714 mmHg 45%
    14:00 +27°C° 0 mm 4 mps 714 mmHg 44%
    15:00 +27°C° 0 mm 4 mps 714 mmHg 43%
    16:00 +27°C° 0 mm 3 mps 714 mmHg 43%
    17:00 +26°C° 0 mm 3 mps 714 mmHg 48%
    18:00 +24°C° 0 mm 2 mps 714 mmHg 54%
    19:00 +23°C° 0 mm 2 mps 714 mmHg 60%
    20:00 +20°C° 0 mm 2 mps 714 mmHg 68%
    21:00 +19°C° 0 mm 1 mps 715 mmHg 76%
    22:00 +16°C° 0 mm 1 mps 715 mmHg 85%
    23:00 +16°C° 0 mm 1 mps 715 mmHg 85%

    Day after tomorrow, 27 June, Wednesday

    Time Temperature Precipitation Wind Pressure Humidity
    00:00 +15°C° 0 mm 1 mps 715 mmHg 86%
    01:00 +15°C° 0 mm 1 mps 715 mmHg 86%
    02:00 +15°C° 0 mm 1 mps 715 mmHg 86%
    03:00 +15°C° 0 mm 1 mps 715 mmHg 86%
    04:00 +15°C° 0 mm 1 mps 715 mmHg 86%
    05:00 +19°C° 0 mm 1 mps 716 mmHg 76%
    06:00 +21°C° 0 mm 1 mps 716 mmHg 66%
    07:00 +24°C° 0 mm 1 mps 716 mmHg 57%
    08:00 +26°C° 0 mm 1 mps 716 mmHg 51%
    09:00 +27°C° 0 mm 2 mps 716 mmHg 45%
    10:00 +29°C° 0 mm 2 mps 716 mmHg 40%
    11:00 +30°C° 0 mm 2 mps 716 mmHg 37%
    12:00 +31°C° 0 mm 3 mps 715 mmHg 34%
    13:00 +31°C° 0 mm 3 mps 715 mmHg 32%
    14:00 +31°C° 0 mm 3 mps 715 mmHg 31%
    15:00 +31°C° 0 mm 3 mps 714 mmHg 31%
    16:00 +31°C° 0 mm 3 mps 714 mmHg 31%
    17:00 +30°C° 0 mm 2 mps 714 mmHg 38%
    18:00 +28°C° 0 mm 2 mps 714 mmHg 44%
    19:00 +27°C° 0 mm 1 mps 713 mmHg 51%
    20:00 +25°C° 0 mm 1 mps 713 mmHg 56%
    21:00 +23°C° 0 mm 1 mps 713 mmHg 61%
    22:00 +21°C° 0 mm 1 mps 713 mmHg 66%
    23:00 +20°C° 0 mm 1 mps 713 mmHg 66%

    28 June, Thursday

    Time Temperature Precipitation Wind Pressure Humidity
    00:00 +20°C° 0 mm 1 mps 713 mmHg 66%
    01:00 +20°C° 0 mm 1 mps 713 mmHg 67%
    02:00 +20°C° 0 mm 1 mps 713 mmHg 66%
    03:00 +19°C° 0 mm 1 mps 713 mmHg 66%
    04:00 +19°C° 0 mm 1 mps 713 mmHg 66%
    05:00 +22°C° 0 mm 1 mps 713 mmHg 58%
    06:00 +24°C° 0 mm 1 mps 713 mmHg 51%
    07:00 +27°C° 0 mm 1 mps 713 mmHg 43%
    08:00 +29°C° 0 mm 2 mps 713 mmHg 39%
    09:00 +31°C° 0 mm 2 mps 713 mmHg 35%
    10:00 +33°C° 0 mm 3 mps 712 mmHg 30%
    11:00 +34°C° 0 mm 3 mps 712 mmHg 29%
    12:00 +34°C° 0 mm 3 mps 712 mmHg 28%
    13:00 +35°C° 0 mm 4 mps 711 mmHg 26%
    14:00 +35°C° 0 mm 3 mps 711 mmHg 27%
    15:00 +34°C° 0 mm 3 mps 711 mmHg 28%
    16:00 +34°C° 0 mm 3 mps 711 mmHg 29%
    17:00 +31°C° 0 mm 3 mps 710 mmHg 35%
    18:00 +30°C° 0 mm 2 mps 710 mmHg 41%
    19:00 +28°C° 0 mm 1 mps 710 mmHg 48%
    20:00 +26°C° 0 mm 1 mps 710 mmHg 52%
    21:00 +24°C° 0 mm 1 mps 710 mmHg 56%
    22:00 +22°C° 0 mm 1 mps 710 mmHg 60%
    23:00 +21°C° 0.1 mm 1 mps 710 mmHg 60%

    29 June, Friday

    Time Temperature Precipitation Wind Pressure Humidity
    00:00 +21°C° 0.1 mm 1 mps 710 mmHg 60%
    01:00 +21°C° 0.1 mm 1 mps 710 mmHg 60%
    02:00 +20°C° 0.1 mm 1 mps 709 mmHg 61%
    03:00 +20°C° 0.1 mm 1 mps 709 mmHg 62%
    04:00 +20°C° 0.1 mm 1 mps 709 mmHg 63%
    05:00 +22°C° 0 mm 1 mps 709 mmHg 59%
    06:00 +23°C° 0 mm 1 mps 710 mmHg 55%
    07:00 +25°C° 0 mm 1 mps 710 mmHg 51%
    08:00 +26°C° 0 mm 2 mps 710 mmHg 45%
    09:00 +28°C° 0 mm 3 mps 710 mmHg 40%
    10:00 +29°C° 0 mm 3 mps 710 mmHg 35%
    11:00 +30°C° 0 mm 4 mps 710 mmHg 33%
    12:00 +30°C° 0 mm 4 mps 709 mmHg 30%
    13:00 +30°C° 0 mm 4 mps 709 mmHg 28%
    14:00 +30°C° 0 mm 4 mps 709 mmHg 29%
    15:00 +30°C° 0 mm 4 mps 709 mmHg 29%
    16:00 +29°C° 0 mm 4 mps 709 mmHg 30%
    17:00 +28°C° 0 mm 3 mps 709 mmHg 35%
    18:00 +26°C° 0 mm 3 mps 709 mmHg 41%
    19:00 +25°C° 0 mm 2 mps 709 mmHg 47%
    20:00 +23°C° 0 mm 2 mps 709 mmHg 53%
    21:00 +20°C° 0 mm 1 mps 709 mmHg 59%
    22:00 +18°C° 0 mm 1 mps 709 mmHg 65%
    23:00 +18°C° 0 mm 1 mps 709 mmHg 66%

    30 June, Saturday

    Time Temperature Precipitation Wind Pressure Humidity
    00:00 +16°C° 0 mm 1 mps 709 mmHg 66%
    01:00 +16°C° 0 mm 1 mps 709 mmHg 67%
    02:00 +15°C° 0 mm 1 mps 709 mmHg 68%
    03:00 +15°C° 0 mm 1 mps 709 mmHg 68%
    04:00 +15°C° 0 mm 1 mps 709 mmHg 69%
    05:00 +19°C° 0 mm 1 mps 710 mmHg 61%
    06:00 +21°C° 0 mm 1 mps 710 mmHg 54%
    07:00 +24°C° 0 mm 1 mps 710 mmHg 46%
    08:00 +26°C° 0 mm 2 mps 710 mmHg 42%
    09:00 +28°C° 0 mm 2 mps 710 mmHg 38%
    10:00 +30°C° 0 mm 2 mps 710 mmHg 34%
    11:00 +31°C° 0 mm 2 mps 710 mmHg 31%
    12:00 +32°C° 0 mm 2 mps 709 mmHg 29%
    13:00 +34°C° 0 mm 2 mps 709 mmHg 27%
    14:00 +34°C° 0 mm 3 mps 709 mmHg 27%
    15:00 +33°C° 0 mm 3 mps 708 mmHg 28%
    16:00 +33°C° 0 mm 3 mps 708 mmHg 28%
    17:00 +31°C° 0 mm 3 mps 708 mmHg 34%
    18:00 +29°C° 0 mm 2 mps 708 mmHg 39%
    19:00 +27°C° 0 mm 2 mps 708 mmHg 45%
    20:00 +25°C° 0 mm 2 mps 708 mmHg 50%
    21:00 +23°C° 0 mm 2 mps 708 mmHg 55%
    22:00 +20°C° 0 mm 2 mps 708 mmHg 60%
    23:00 +20°C° 0 mm 2 mps 707 mmHg 61%
    Show more